Hourly Data Report for September 10, 2017

All times are specified in Local Standard Time (LST). Add 1 hour to adjust for Daylight Saving Time where and when it is observed.

CAPE DORSET A
NUNAVUT

64°13'49.000" N
76°31'30.000" W
48.20 m
2400637
71366
YTE

Download Data

Hourly Data (September 2017)
Hourly Data Report for September 10, 2017
Temp Definition
°C
Dew Point Temp Definition
°C
Rel Hum Definition
%
Wind Dir Definition
10's deg

Wind Spd Definition
km/h
Visibility Definition
km
Stn Press Definition
kPa
Hmdx Definition


Wind Chill Definition


Weather Definition


TIME
00:00 Legend Double Dagger 1.6 -1.7 79 29 41 16.1 100.08     LegendNANA
01:00 Legend Double Dagger 1.6 -2.2 76 30 46 16.1 100.20     LegendNANA
02:00 Legend Double Dagger 1.5 -1.8 79 29 30 16.1 100.35     LegendNANA
03:00 Legend Double Dagger 1.3 -1.8 80 29 32 16.1 100.48     LegendNANA
04:00 Legend Double Dagger 1.0 -1.8 82 29 28 16.1 100.59     LegendNANA
05:00 Legend Double Dagger 0.9 -2.2 80 29 30 16.1 100.67     LegendNANA
06:00 Legend Double Dagger 1.1 -2.5 77 30 30 16.1 100.77     LegendNANA
07:00 Legend Double Dagger 1.6 -3.1 71 28 34 16.1 100.88     LegendNANA
08:00 Legend Double Dagger 2.1 -2.6 71 29 32 16.1 100.98     LegendNANA
09:00 Legend Double Dagger 2.7 -2.6 68 30 34 16.1 101.01     LegendNANA
10:00 Legend Double Dagger 3.3 -2.3 67 29 32 16.1 101.08     LegendNANA
11:00 Legend Double Dagger 4.1 -2.7 61 28 34 16.1 101.12     LegendNANA
12:00 Legend Double Dagger 4.5 -1.4 66 27 30 16.1 101.13     LegendNANA
13:00 Legend Double Dagger 4.7 -2.1 61 27 34 16.1 101.16     LegendNANA
14:00 Legend Double Dagger 4.7 -0.9 67 27 30 16.1 101.19     LegendNANA
15:00 Legend Double Dagger 4.6 -0.4 70 27 30 16.1 101.22     LegendNANA
16:00 Legend Double Dagger 3.9 -1.1 70 27 35 16.1 101.18     LegendNANA
17:00 Legend Double Dagger 2.8 -0.7 78 26 34 16.1 101.21     LegendNANA
18:00 Legend Double Dagger 2.4 -1.4 76 28 22 16.1 101.22     LegendNANA
19:00 Legend Double Dagger 1.2 -0.7 87 24 24 16.1 101.24     LegendNANA
20:00 Legend Double Dagger 0.6 -0.9 90 24 18 16.1 101.27     LegendNANA
21:00 Legend Double Dagger 0.4 -1.1 90 26 22 16.1 101.22     LegendNANA
22:00 Legend Double Dagger 0.5 -2.2 82 27 13 16.1 101.24     LegendNANA
23:00 Legend Double Dagger 0.5 -2.2 82 19 5 16.1 101.19     LegendNANA

Notes on Data Quality.

Legend

  • E = Estimated
  • M = Missing
  • NA = Not Available
  • ‡ = Partner data that is not subject to review by the National Climate Archives
Date modified: